Stations météo

réclame
Mon MeteoGroup
Treviso/S. Angelo, Italie (16099): Température de l'air & dewpoint: 17.10.2018 07:00:00 - 23.10.2018 07:00:00 (CEST)Treviso/S. Angelo, Italie (16099): Vitesse du vent: 17.10.2018 07:00:00 - 23.10.2018 07:00:00 (CEST)Treviso/S. Angelo, Italie (16099): Direction du vent: 17.10.2018 07:00:00 - 23.10.2018 07:00:00 (CEST)Treviso/S. Angelo, Italie (16099): reduced air pressure: 17.10.2018 07:00:00 - 23.10.2018 07:00:00 (CEST)Treviso/S. Angelo, Italie (16099): visibility: 17.10.2018 07:00:00 - 23.10.2018 07:00:00 (CEST)Treviso/S. Angelo, Italie (16099): Quantités de précipitations: 17.10.2018 07:00:00 - 23.10.2018 07:00:00 (CEST)
Date & Time tt [°C] td [°C] ff [km/h] ff [knt] dd ppp [hPa] vv [km] rr [mm]
23.10.2018 07:00:00 - - - - - - - -
23.10.2018 06:00:00 - - - - - - - -
23.10.2018 05:00:00 7,1 6,0 2 1 N 1024,4 - 0,0
23.10.2018 04:00:00 - - - - - - - -
23.10.2018 03:00:00 - - - - - - - -
23.10.2018 02:00:00 7,9 6,3 2 1 N 1024,4 - -
23.10.2018 01:00:00 - - - - - - - -
23.10.2018 00:00:00 - - - - - - - -
22.10.2018 23:00:00 9,6 8,3 2 1 N 1024,2 10 0,0
22.10.2018 22:00:00 - - - - - - - -
22.10.2018 21:00:00 - - - - - - - -
22.10.2018 20:00:00 12,1 8,5 0 0 N 1022,4 10 -
22.10.2018 19:00:00 - - - - - - - -
22.10.2018 18:00:00 - - - - - - - -
22.10.2018 17:00:00 18,7 6,7 2 1 N 1020,6 10 0,0
22.10.2018 16:00:00 - - - - - - - -
22.10.2018 15:00:00 - - - - - - - -
22.10.2018 14:00:00 18,1 4,7 4 2 N 1021,4 30 -
22.10.2018 13:00:00 - - - - - - - -
22.10.2018 12:00:00 - - - - - - - -
22.10.2018 11:00:00 14,4 7,1 4 2 N 1023,0 30 0,0
22.10.2018 10:00:00 - - - - - - - -
22.10.2018 09:00:00 - - - - - - - -
22.10.2018 08:00:00 6,8 4,8 4 2 N 1022,3 30 -
22.10.2018 07:00:00 - - - - - - - -
22.10.2018 06:00:00 - - - - - - - -
22.10.2018 05:00:00 6,0 5,0 2 1 NE 1022,6 - 0,0
22.10.2018 04:00:00 - - - - - - - -
22.10.2018 03:00:00 - - - - - - - -
22.10.2018 02:00:00 6,3 5,9 5 3 N 1023,8 - -
22.10.2018 01:00:00 - - - - - - - -
22.10.2018 00:00:00 - - - - - - - -
21.10.2018 23:00:00 8,8 7,5 4 2 N 1024,2 25 0,0
21.10.2018 22:00:00 - - - - - - - -
21.10.2018 21:00:00 - - - - - - - -
21.10.2018 20:00:00 10,8 7,9 4 2 WNW 1023,6 20 -
21.10.2018 19:00:00 - - - - - - - -
21.10.2018 18:00:00 - - - - - - - -
21.10.2018 17:00:00 12,7 8,3 18 10 E 1022,1 25 0,0
21.10.2018 16:00:00 - - - - - - - -
21.10.2018 15:00:00 - - - - - - - -
21.10.2018 14:00:00 19,6 13,5 21 11 ESE 1019,7 10 -
21.10.2018 13:00:00 - - - - - - - -
21.10.2018 12:00:00 - - - - - - - -
21.10.2018 11:00:00 17,7 11,9 8 4 NNE 1020,8 10 0,0
21.10.2018 10:00:00 - - - - - - - -
21.10.2018 09:00:00 - - - - - - - -
21.10.2018 08:00:00 14,6 11,0 4 2 NNE 1020,7 10 -
21.10.2018 07:00:00 - - - - - - - -
21.10.2018 06:00:00 - - - - - - - -
21.10.2018 05:00:00 12,5 10,8 0 0 N 1020,9 - 0,0
21.10.2018 04:00:00 - - - - - - - -
21.10.2018 03:00:00 - - - - - - - -
21.10.2018 02:00:00 11,7 10,7 2 1 N 1022,7 - -
21.10.2018 01:00:00 - - - - - - - -
21.10.2018 00:00:00 - - - - - - - -
20.10.2018 23:00:00 13,4 11,5 4 2 ENE 1023,3 10 0,0
20.10.2018 22:00:00 - - - - - - - -
20.10.2018 21:00:00 - - - - - - - -
20.10.2018 20:00:00 16,2 12,9 4 2 WSW 1022,4 10 -
20.10.2018 19:00:00 - - - - - - - -
20.10.2018 18:00:00 - - - - - - - -
20.10.2018 17:00:00 22,6 11,6 0 0 N 1022,2 10 0,0
20.10.2018 16:00:00 - - - - - - - -
20.10.2018 15:00:00 - - - - - - - -
20.10.2018 14:00:00 22,0 11,8 2 1 N 1023,8 - -
20.10.2018 13:00:00 - - - - - - - -
20.10.2018 12:00:00 - - - - - - - -
20.10.2018 11:00:00 19,4 11,9 9 5 NE 1024,0 10 0,0
20.10.2018 10:00:00 - - - - - - - -
20.10.2018 09:00:00 - - - - - - - -
20.10.2018 08:00:00 13,8 11,2 4 2 NNE 1022,6 10 -
20.10.2018 07:00:00 - - - - - - - -
20.10.2018 06:00:00 - - - - - - - -
20.10.2018 05:00:00 14,2 10,9 4 2 N 1021,5 - 0,0
20.10.2018 04:00:00 - - - - - - - -
20.10.2018 03:00:00 - - - - - - - -
20.10.2018 02:00:00 15,9 11,2 8 4 NNE 1021,4 - -
20.10.2018 01:00:00 - - - - - - - -
20.10.2018 00:00:00 - - - - - - - -
19.10.2018 23:00:00 15,0 11,4 2 1 N 1020,8 - 0,0
19.10.2018 22:00:00 - - - - - - - -
19.10.2018 21:00:00 - - - - - - - -
19.10.2018 20:00:00 17,0 13,1 2 1 NNW 1019,5 10 -
19.10.2018 19:00:00 - - - - - - - -
19.10.2018 18:00:00 - - - - - - - -
19.10.2018 17:00:00 23,6 11,7 5 3 SE 1017,8 - 0,0
19.10.2018 16:00:00 - - - - - - - -
19.10.2018 15:00:00 - - - - - - - -
19.10.2018 14:00:00 23,5 11,8 11 6 ENE 1018,2 25 -
19.10.2018 13:00:00 - - - - - - - -
19.10.2018 12:00:00 - - - - - - - -
19.10.2018 11:00:00 20,7 12,1 11 6 NNE 1018,8 - 0,0
19.10.2018 10:00:00 - - - - - - - -
19.10.2018 09:00:00 - - - - - - - -
19.10.2018 08:00:00 13,4 11,6 5 3 N 1017,8 12 -
19.10.2018 07:00:00 - - - - - - - -
19.10.2018 06:00:00 - - - - - - - -
19.10.2018 05:00:00 13,3 12,1 2 1 - 1017,2 - 0,0
19.10.2018 04:00:00 - - - - - - - -
19.10.2018 03:00:00 - - - - - - - -
19.10.2018 02:00:00 15,9 12,6 4 2 N 1017,6 - -
19.10.2018 01:00:00 - - - - - - - -
19.10.2018 00:00:00 - - - - - - - -
18.10.2018 23:00:00 15,0 14,1 2 1 N 1017,0 - 0,0
18.10.2018 22:00:00 - - - - - - - -
18.10.2018 21:00:00 - - - - - - - -
18.10.2018 20:00:00 17,9 14,6 0 0 N 1015,9 10 -
18.10.2018 19:00:00 - - - - - - - -
18.10.2018 18:00:00 - - - - - - - -
18.10.2018 17:00:00 23,0 14,8 4 2 - 1014,9 10 0,0
18.10.2018 16:00:00 - - - - - - - -
18.10.2018 15:00:00 - - - - - - - -
18.10.2018 14:00:00 - - - - - - - -
18.10.2018 13:00:00 - - - - - - - -
18.10.2018 12:00:00 - - - - - - - -
18.10.2018 11:00:00 19,5 14,3 4 2 N 1017,1 25 0,0
18.10.2018 10:00:00 - - - - - - - -
18.10.2018 09:00:00 - - - - - - - -
18.10.2018 08:00:00 12,2 11,7 2 1 N 1016,4 25 -
18.10.2018 07:00:00 - - - - - - - -
18.10.2018 06:00:00 - - - - - - - -
18.10.2018 05:00:00 13,2 12,2 2 1 WNW 1016,4 - 0,0
18.10.2018 04:00:00 - - - - - - - -
18.10.2018 03:00:00 - - - - - - - -
18.10.2018 02:00:00 14,2 13,1 2 1 N 1017,5 - -
18.10.2018 01:00:00 - - - - - - - -
18.10.2018 00:00:00 - - - - - - - -
17.10.2018 23:00:00 - - - - - - - -
17.10.2018 22:00:00 - - - - - - - -
17.10.2018 21:00:00 - - - - - - - -
17.10.2018 20:00:00 18,4 14,8 2 1 N 1018,5 10 -
17.10.2018 19:00:00 - - - - - - - -
17.10.2018 18:00:00 - - - - - - - -
17.10.2018 17:00:00 19,6 13,9 5 3 NE 1018,2 10 0,0
17.10.2018 16:00:00 - - - - - - - -
17.10.2018 15:00:00 - - - - - - - -
17.10.2018 14:00:00 19,4 13,9 8 4 NE 1019,2 15 -
17.10.2018 13:00:00 - - - - - - - -
17.10.2018 12:00:00 - - - - - - - -
17.10.2018 11:00:00 18,1 13,6 4 2 N 1020,1 15 0,0
17.10.2018 10:00:00 - - - - - - - -
17.10.2018 09:00:00 - - - - - - - -
17.10.2018 08:00:00 15,0 13,4 2 1 N 1019,6 15 -
17.10.2018 07:00:00 - - - - - - - -

tt = Température de l'air
td = dewpoint
ff = Vitesse du vent
dd = Direction du vent
ppp = reduced air pressure
vv = visibility
rr = Quantités de précipitations

stations d'obs. à proximité